Location: Minneapolis
(44.9800°N, 93.2640°W)
Time: 23:51:07
(UTC-05:00)

Iridium 96 - Visible Passes

Search period start: 23 July 2017 00:00
Search period end: 02 August 2017 00:00
Orbit: 775 x 779 km, 86.4° (Epoch: 23 July)

Date Brightness Start Highest point End Pass type
(mag) Time Alt. Az. Time Alt. Az. Time Alt. Az.
23 Jul 6.1 01:02:39 41° ESE 01:03:13 43° E 01:08:07 10° NNE visible
23 Jul 6.9 02:43:07 23° W 02:44:06 25° WNW 02:48:22 10° NNW visible
24 Jul 6.9 00:29:16 24° E 00:29:54 25° E 00:34:04 10° NNE visible
24 Jul 6.1 02:09:43 41° W 02:10:20 42° W 02:15:19 10° N visible
24 Jul 7.6 23:55:52 14° E 23:56:43 14° ENE 23:59:21 10° NE visible
25 Jul 5.4 01:36:20 72° SW 01:36:43 76° W 01:41:58 10° N visible
26 Jul 5.6 01:02:56 60° ESE 01:03:13 61° E 01:08:22 10° N visible
26 Jul 7.3 02:43:24 17° W 02:44:24 18° WNW 02:47:54 10° NNW visible
27 Jul 6.4 00:29:31 34° E 00:29:51 34° E 00:34:31 10° NNE visible
27 Jul 6.6 02:10:00 30° W 02:10:34 30° WNW 02:15:10 10° NNW visible
27 Jul 7.2 23:56:07 20° E 23:56:35 20° ENE 00:00:17 10° NNE visible
28 Jul 5.8 01:36:35 53° W 01:36:52 53° W 01:41:59 10° N visible
28 Jul 7.7 23:22:41 11° E 23:23:27 11° ENE 23:24:49 10° ENE visible
29 Jul 5.4 01:03:10 85° SE 01:03:17 86° E 01:08:32 10° N visible
29 Jul 7.7 02:43:38 12° W 02:44:46 13° WNW 02:46:59 10° NW visible
30 Jul 5.9 00:29:44 48° E 00:29:50 48° E 00:34:51 10° NNE visible
30 Jul 7.1 02:10:12 22° W 02:10:50 22° WNW 02:14:51 10° NNW visible
30 Jul 6.7 23:56:18 27° E 23:56:30 28° E 00:00:52 10° NNE visible
31 Jul 6.4 01:36:46 37° W 01:37:03 38° W 01:41:54 10° NNW visible
31 Jul 7.4 23:22:52 16° E 23:23:17 16° ENE 23:26:21 10° NE visible
01 Aug 5.6 01:03:20 67° W 01:03:23 67° W 01:08:36 10° N visible
